DW6996 Weather Reports


Display with metric or nautical units.
time (UTC)temp
F
wind
direction
speed
MPH
gust
MPH
rain 1hr
in
rain 24hr
in
rain mn
in
humidity
%
barometer
mb
20260905201606 100 146 0.0 1.0 0.00 0.00 0.00 28 1011.1
20260905201106 100 150 0.0 1.0 0.00 0.00 0.00 27 1011.2
20260905200832 100 198 0.0 1.0 0.00 0.00 0.00 27 1011.2
20260905200105 100 229 0.0 1.0 0.00 0.00 0.00 27 1011.2
20260905195606 99 214 0.0 1.0 0.00 0.00 0.00 28 1011.3
20260905195106 99 194 0.0 4.0 0.00 0.00 0.00 28 1011.3
20260905194605 98 185 0.0 4.0 0.00 0.00 0.00 28 1011.4
20260905194106 98 244 0.0 2.0 0.00 0.00 0.00 28 1011.5
20260905193605 98 237 0.0 0.0 0.00 0.00 0.00 29 1011.6
20260905193105 98 181 0.0 0.0 0.00 0.00 0.00 29 1011.6
20260905192605 98 173 0.0 2.0 0.00 0.00 0.00 29 1011.6
20260905192103 98 220 0.0 2.0 0.00 0.00 0.00 29 1011.7
20260905191601 99 229 0.0 1.0 0.00 0.00 0.00 28 1011.8
20260905191101 98 282 0.0 0.0 0.00 0.00 0.00 29 1011.9
20260905191051 98 196 0.0 1.0 0.00 0.00 0.00 30 1012.0
20260905190101 97 214 0.0 1.0 0.00 0.00 0.00 30 1012.1
20260905185601 97 175 0.0 1.0 0.00 0.00 0.00 30 1012.1
20260905185100 96 232 0.0 0.0 0.00 0.00 0.00 31 1012.3
20260905185046 96 232 0.0 1.0 0.00 0.00 0.00 31 1012.3
20260905184101 96 233 0.0 1.0 0.00 0.00 0.00 30 1012.4
20260905183825 96 228 0.0 0.0 0.00 0.00 0.00 31 1012.4
20260905183102 95 214 0.0 1.0 0.00 0.00 0.00 31 1012.4
20260905182601 95 194 0.0 2.0 0.00 0.00 0.00 31 1012.5
20260905182101 95 132 0.0 6.0 0.00 0.00 0.00 31 1012.5
20260905181602 95 165 0.0 6.0 0.00 0.00 0.00 31 1012.6
20260905181101 95 173 0.0 2.0 0.00 0.00 0.00 31 1012.6
20260905180818 95 128 0.0 2.0 0.00 0.00 0.00 31 1012.6
20260905180100 96 150 0.0 0.0 0.00 0.00 0.00 31 1012.7
20260905175603 95 177 0.0 0.0 0.00 0.00 0.00 31 1012.7
20260905175100 95 190 0.0 0.0 0.00 0.00 0.00 31 1012.7
20260905174601 94 213 0.0 0.0 0.00 0.00 0.00 32 1012.6
20260905174101 93 236 0.0 0.0 0.00 0.00 0.00 32 1012.6
20260905173601 93 236 0.0 0.0 0.00 0.00 0.00 32 1012.6
20260905173101 93 235 0.0 0.0 0.00 0.00 0.00 32 1012.6
20260905172601 93 234 0.0 0.0 0.00 0.00 0.00 33 1012.6
20260905172332 92 211 0.0 0.0 0.00 0.00 0.00 33 1012.6
20260905171600 92 217 0.0 0.0 0.00 0.00 0.00 33 1012.7
20260905171103 92 217 0.0 0.0 0.00 0.00 0.00 33 1012.6
20260905170601 92 208 0.0 0.0 0.00 0.00 0.00 33 1012.6
20260905170100 92 217 0.0 0.0 0.00 0.00 0.00 33 1012.6
20260905165558 92 220 0.0 0.0 0.00 0.00 0.00 34 1012.5
20260905165049 92 220 0.0 0.0 0.00 0.00 0.00 34 1012.6
20260905164543 92 218 0.0 0.0 0.00 0.00 0.00 34 1012.6
20260905164037 92 219 0.0 0.0 0.00 0.00 0.00 34 1012.6
20260905163757 91 227 0.0 0.0 0.00 0.00 0.00 34 1012.6
20260905163035 92 235 0.0 0.0 0.00 0.00 0.00 34 1012.6
20260905162533 91 225 0.0 0.0 0.00 0.00 0.00 34 1012.6
20260905162030 91 189 0.0 0.0 0.00 0.00 0.00 34 1012.5
20260905161529 91 189 0.0 0.0 0.00 0.00 0.00 34 1012.4
20260905161029 91 188 0.0 0.0 0.00 0.00 0.00 34 1012.4
20260905160753 91 189 0.0 0.0 0.00 0.00 0.00 35 1012.3
20260905160029 91 188 0.0 0.0 0.00 0.00 0.00 35 1012.3
20260905155529 91 193 0.0 0.0 0.00 0.00 0.00 35 1012.3
20260905155029 91 193 0.0 0.0 0.00 0.00 0.00 35 1012.3
20260905154529 91 226 0.0 0.0 0.00 0.00 0.00 35 1012.4
20260905154029 91 236 0.0 0.0 0.00 0.00 0.00 35 1012.3
20260905153529 91 230 0.0 0.0 0.00 0.00 0.00 34 1012.3
20260905153029 91 221 0.0 0.0 0.00 0.00 0.00 35 1012.1
20260905152747 91 273 0.0 0.0 0.00 0.00 0.00 34 1012.1
20260905152029 91 283 0.0 0.0 0.00 0.00 0.00 34 1012.0
20260905151756 91 331 0.0 0.0 0.00 0.00 0.00 34 1012.1
20260905151031 91 331 0.0 0.0 0.00 0.00 0.00 34 1012.0
20260905150526 91 331 0.0 0.0 0.00 0.00 0.00 35 1011.9
20260905150019 90 331 0.0 0.0 0.00 0.00 0.00 35 1011.9
20260905145512 90 330 0.0 0.0 0.00 0.00 0.00 35 1011.9
20260905145011 90 331 0.0 0.0 0.00 0.00 0.00 35 1012.1
20260905144512 90 331 0.0 0.0 0.00 0.00 0.00 35 1012.1
20260905144009 89 349 0.0 0.0 0.00 0.00 0.00 35 1011.9
20260905143728 89 349 0.0 0.0 0.00 0.00 0.00 36 1011.9
20260905143007 88 349 0.0 0.0 0.00 0.00 0.00 36 1011.8
20260905142736 88 349 0.0 0.0 0.00 0.00 0.00 37 1011.8
20260905142009 87 349 0.0 0.0 0.00 0.00 0.00 37 1011.8
20260905141507 87 349 0.0 0.0 0.00 0.00 0.00 38 1011.8
20260905141005 86 349 0.0 0.0 0.00 0.00 0.00 39 1011.7
20260905140503 86 349 0.0 0.0 0.00 0.00 0.00 39 1011.8
20260905140003 85 348 0.0 0.0 0.00 0.00 0.00 40 1011.7
20260905135502 85 349 0.0 0.0 0.00 0.00 0.00 39 1011.5
20260905135001 85 349 0.0 0.0 0.00 0.00 0.00 39 1011.6
20260905134501 85 349 0.0 0.0 0.00 0.00 0.00 40 1011.5
20260905134000 85 349 0.0 0.0 0.00 0.00 0.00 40 1011.4
20260905133502 85 348 0.0 0.0 0.00 0.00 0.00 40 1011.3
20260905133219 85 348 0.0 0.0 0.00 0.00 0.00 39 1011.3
20260905132502 85 348 0.0 0.0 0.00 0.00 0.00 39 1011.3
20260905132000 85 348 0.0 0.0 0.00 0.00 0.00 40 1011.2
20260905131719 85 348 0.0 0.0 0.00 0.00 0.00 39 1011.2
20260905131001 85 348 0.0 0.0 0.00 0.00 0.00 39 1011.2
20260905130501 85 348 0.0 0.0 0.00 0.00 0.00 39 1011.1
20260905130003 85 348 0.0 0.0 0.00 0.00 0.00 39 1011.0
20260905125500 86 348 0.0 0.0 0.00 0.00 0.00 39 1011.0
20260905125001 86 348 0.0 0.0 0.00 0.00 0.00 39 1011.0
20260905124502 86 348 0.0 0.0 0.00 0.00 0.00 38 1010.9
20260905124001 86 348 0.0 0.0 0.00 0.00 0.00 38 1010.8
20260905123501 86 348 0.0 0.0 0.00 0.00 0.00 38 1010.8
20260905123001 87 348 0.0 0.0 0.00 0.00 0.00 37 1010.8
20260905122500 87 348 0.0 0.0 0.00 0.00 0.00 37 1010.7
20260905122000 86 348 0.0 0.0 0.00 0.00 0.00 37 1010.7
20260905121726 86 348 0.0 0.0 0.00 0.00 0.00 38 1010.6
20260905121000 86 348 0.0 0.0 0.00 0.00 0.00 38 1010.6
20260905120501 86 348 0.0 0.0 0.00 0.00 0.00 38 1010.6
20260905120001 86 348 0.0 0.0 0.00 0.00 0.00 38 1010.6
20260905115500 86 348 0.0 0.0 0.00 0.00 0.00 38 1010.6
20260905115001 86 348 0.0 0.0 0.00 0.00 0.00 38 1010.6
20260905114502 86 348 0.0 0.0 0.00 0.00 0.00 38 1010.4
20260905114001 86 348 0.0 0.0 0.00 0.00 0.00 38 1010.4
20260905113501 86 348 0.0 0.0 0.00 0.00 0.00 38 1010.4
20260905113001 86 348 0.0 0.0 0.00 0.00 0.00 38 1010.6
20260905112501 86 348 0.0 0.0 0.00 0.00 0.00 38 1010.6
20260905112001 86 348 0.0 0.0 0.00 0.00 0.00 38 1010.6
20260905111501 86 348 0.0 0.0 0.00 0.00 0.00 38 1010.6
20260905111001 87 348 0.0 0.0 0.00 0.00 0.00 38 1010.6
20260905110501 87 348 0.0 0.0 0.00 0.00 0.00 38 1010.4
20260905110000 87 348 0.0 0.0 0.00 0.00 0.00 38 1010.4
20260905105501 87 348 0.0 0.0 0.00 0.00 0.00 38 1010.3
20260905105223 87 348 0.0 0.0 0.00 0.00 0.00 38 1010.4
20260905104943 87 348 0.0 0.0 0.00 0.00 0.00 37 1010.4
20260905104001 87 347 0.0 0.0 0.00 0.00 0.00 37 1010.4
20260905103501 87 345 0.0 0.0 0.00 0.00 0.00 37 1010.4
20260905103000 87 344 0.0 0.0 0.00 0.00 0.00 36 1010.3
20260905102502 87 344 0.0 0.0 0.00 0.00 0.00 37 1010.2
20260905102454 87 344 0.0 0.0 0.00 0.00 0.00 37 1010.1
20260905101726 87 344 0.0 0.0 0.00 0.00 0.00 36 1010.2
20260905101218 87 344 0.0 0.0 0.00 0.00 0.00 36 1010.1
20260905100501 87 344 0.0 0.0 0.00 0.00 0.00 36 1010.1
20260905100221 87 344 0.0 0.0 0.00 0.00 0.00 36 1010.1
20260905095501 88 344 0.0 0.0 0.00 0.00 0.00 36 1010.2
20260905095000 88 344 0.0 0.0 0.00 0.00 0.00 36 1010.2
20260905094501 88 344 0.0 0.0 0.00 0.00 0.00 36 1010.2
20260905094000 88 344 0.0 0.0 0.00 0.00 0.00 36 1010.2
20260905093501 88 344 0.0 0.0 0.00 0.00 0.00 36 1010.2
20260905093001 88 344 0.0 0.0 0.00 0.00 0.00 36 1010.3
20260905092456 88 344 0.0 0.0 0.00 0.00 0.00 36 1010.3
20260905092215 88 344 0.0 0.0 0.00 0.00 0.00 36 1010.2
20260905091443 88 344 0.0 0.0 0.00 0.00 0.00 36 1010.2
20260905090939 88 345 0.0 0.0 0.00 0.00 0.00 36 1010.1
20260905090438 88 345 0.0 0.0 0.00 0.00 0.00 36 1010.2
20260905085938 88 345 0.0 0.0 0.00 0.00 0.00 36 1010.2
20260905085438 88 344 0.0 0.0 0.00 0.00 0.00 36 1010.2
20260905085203 89 291 0.0 0.0 0.00 0.00 0.00 35 1010.3
20260905084434 89 291 0.0 0.0 0.00 0.00 0.00 35 1010.3
20260905083932 89 291 0.0 0.0 0.00 0.00 0.00 35 1010.3
20260905083915 89 291 0.0 0.0 0.00 0.00 0.00 35 1010.3
20260905082930 89 291 0.0 0.0 0.00 0.00 0.00 35 1010.3
20260905082430 89 275 0.0 0.0 0.00 0.00 0.00 35 1010.3
20260905081930 89 238 0.0 0.0 0.00 0.00 0.00 35 1010.3
20260905081653 89 238 0.0 0.0 0.00 0.00 0.00 34 1010.3
20260905080930 89 238 0.0 0.0 0.00 0.00 0.00 34 1010.3
20260905080429 89 238 0.0 0.0 0.00 0.00 0.00 34 1010.3
20260905075930 90 236 0.0 0.0 0.00 0.00 0.00 34 1010.3
20260905075429 90 236 0.0 0.0 0.00 0.00 0.00 34 1010.3
20260905075154 90 242 0.0 0.0 0.00 0.00 0.00 34 1010.3
20260905074430 90 215 0.0 0.0 0.00 0.00 0.00 33 1010.3
20260905073930 90 215 0.0 0.0 0.00 0.00 0.00 33 1010.3
20260905073429 90 215 0.0 0.0 0.00 0.00 0.00 33 1010.2
20260905072929 90 196 0.0 0.0 0.00 0.00 0.00 33 1010.2
20260905072428 90 188 0.0 0.0 0.00 0.00 0.00 33 1010.2
20260905071929 90 188 0.0 0.0 0.00 0.00 0.00 32 1010.2
20260905071429 91 188 0.0 0.0 0.00 0.00 0.00 32 1010.2
20260905070930 91 188 0.0 0.0 0.00 0.00 0.00 32 1010.2
20260905070427 91 157 0.0 0.0 0.00 0.00 0.00 32 1010.2
20260905070144 91 65 0.0 0.0 0.00 0.00 0.00 32 1010.2
20260905065650 91 226 0.0 0.0 0.00 0.00 0.00 31 1010.2
20260905064928 91 226 0.0 0.0 0.00 0.00 0.00 31 1010.2
20260905064425 91 226 0.0 0.0 0.00 0.00 0.00 31 1010.2
20260905063923 91 226 0.0 0.0 0.00 0.00 0.00 31 1010.1
20260905063423 91 226 0.0 0.0 0.00 0.00 0.00 31 1010.0
20260905062923 91 226 0.0 0.0 0.00 0.00 0.00 31 1010.0
20260905062423 91 226 0.0 0.0 0.00 0.00 0.00 30 1009.9
20260905061924 91 226 0.0 0.0 0.00 0.00 0.00 30 1009.9
20260905061422 92 226 0.0 0.0 0.00 0.00 0.00 30 1009.9
20260905060922 92 226 0.0 0.0 0.00 0.00 0.00 30 1009.8
20260905060422 92 225 0.0 0.0 0.00 0.00 0.00 30 1009.8
20260905055922 92 225 0.0 0.0 0.00 0.00 0.00 30 1009.9
20260905055420 92 225 0.0 0.0 0.00 0.00 0.00 30 1009.9
20260905054918 92 225 0.0 0.0 0.00 0.00 0.00 30 1009.8
20260905054416 92 225 0.0 0.0 0.00 0.00 0.00 30 1009.8
20260905053916 93 225 0.0 0.0 0.00 0.00 0.00 29 1009.8
20260905053417 93 225 0.0 0.0 0.00 0.00 0.00 29 1009.8
20260905052917 93 225 0.0 0.0 0.00 0.00 0.00 29 1009.7
20260905052637 93 225 0.0 0.0 0.00 0.00 0.00 29 1009.6
20260905052142 93 224 0.0 0.0 0.00 0.00 0.00 29 1009.6
20260905051416 93 224 0.0 0.0 0.00 0.00 0.00 29 1009.6
20260905050913 93 224 0.0 0.0 0.00 0.00 0.00 29 1009.6
20260905050413 93 223 0.0 0.0 0.00 0.00 0.00 29 1009.5
20260905045914 93 213 0.0 0.0 0.00 0.00 0.00 29 1009.5
20260905045412 94 221 0.0 0.0 0.00 0.00 0.00 29 1009.5
20260905045139 94 222 0.0 0.0 0.00 0.00 0.00 29 1009.4
20260905044412 94 221 0.0 0.0 0.00 0.00 0.00 28 1009.5
20260905043913 94 220 0.0 0.0 0.00 0.00 0.00 28 1009.4
20260905043412 94 234 0.0 0.0 0.00 0.00 0.00 28 1009.4
20260905042914 94 223 0.0 1.0 0.00 0.00 0.00 28 1009.4
20260905042409 95 237 0.0 1.0 0.00 0.00 0.00 29 1009.3
20260905041909 95 225 0.0 1.0 0.00 0.00 0.00 29 1009.3
20260905041628 95 228 0.0 0.0 0.00 0.00 0.00 29 1009.2
20260905040909 95 226 0.0 0.0 0.00 0.00 0.00 29 1009.2
20260905040408 95 209 0.0 2.0 0.00 0.00 0.00 29 1009.2
20260905035906 95 219 0.0 2.0 0.00 0.00 0.00 29 1009.1
20260905035406 95 234 0.0 1.0 0.00 0.00 0.00 29 1009.0
20260905034905 95 223 0.0 1.0 0.00 0.00 0.00 29 1009.0
20260905034402 95 204 0.0 4.0 0.00 0.00 0.00 29 1009.0
20260905033901 96 225 0.0 6.0 0.00 0.00 0.00 29 1008.9
20260905033402 96 229 0.0 6.0 0.00 0.00 0.00 29 1008.9
20260905032901 96 227 0.0 5.0 0.00 0.00 0.00 28 1008.8
20260905032402 96 198 0.0 5.0 0.00 0.00 0.00 28 1008.8
20260905031901 96 234 0.0 3.0 0.00 0.00 0.00 28 1008.7
20260905031359 96 222 0.0 4.0 0.00 0.00 0.00 27 1008.6
20260905030854 96 215 0.0 4.0 0.00 0.00 0.00 27 1008.5
20260905030346 96 215 0.0 2.0 0.00 0.00 0.00 27 1008.5
20260905025841 97 229 0.0 2.0 0.00 0.00 0.00 26 1008.4
20260905025334 97 200 0.0 4.0 0.00 0.00 0.00 26 1008.3
20260905024832 97 231 0.0 4.0 0.00 0.00 0.00 26 1008.3
20260905024332 97 230 0.0 1.0 0.00 0.00 0.00 26 1008.3
20260905023830 97 233 0.0 2.0 0.00 0.00 0.00 25 1008.2
20260905023330 97 233 0.0 12.0 0.00 0.00 0.00 25 1008.1
20260905023049 98 229 0.0 12.0 0.00 0.00 0.00 25 1008.0
20260905022330 98 229 0.0 4.0 0.00 0.00 0.00 24 1008.0
20260905021830 98 229 0.0 5.0 0.00 0.00 0.00 24 1008.0
20260905021330 98 225 0.0 7.0 0.00 0.00 0.00 24 1008.0
20260905021102 98 221 0.0 7.0 0.00 0.00 0.00 24 1007.7
20260905020330 98 224 0.0 6.0 0.00 0.00 0.00 23 1007.7
20260905015831 99 227 1.0 6.0 0.00 0.00 0.00 23 1007.7
20260905015331 99 196 1.0 7.0 0.00 0.00 0.00 23 1007.6
20260905014830 99 227 0.0 7.0 0.00 0.00 0.00 23 1007.6
20260905014330 99 213 0.0 4.0 0.00 0.00 0.00 24 1007.5
20260905014056 99 215 0.0 4.0 0.00 0.00 0.00 24 1007.5
20260905013330 99 209 0.0 4.0 0.00 0.00 0.00 24 1007.5
20260905012829 100 207 0.0 3.0 0.00 0.00 0.00 25 1007.5
20260905012328 100 182 0.0 6.0 0.00 0.00 0.00 27 1007.5
20260905011822 100 193 0.0 6.0 0.00 0.00 0.00 25 1007.4
20260905011317 101 214 0.0 7.0 0.00 0.00 0.00 24 1007.4
20260905011030 101 232 0.0 7.0 0.00 0.00 0.00 24 1007.4
20260905010308 101 209 0.0 2.0 0.00 0.00 0.00 23 1007.4
20260905005809 101 155 0.0 5.0 0.00 0.00 0.00 24 1007.4
20260905005308 101 211 1.0 10.0 0.00 0.00 0.00 23 1007.4
20260905004808 101 216 1.0 10.0 0.00 0.00 0.00 23 1007.4
20260905004308 101 201 0.0 1.0 0.00 0.00 0.00 23 1007.4
20260905003808 101 204 0.0 1.0 0.00 0.00 0.00 24 1007.4
20260905003308 101 211 0.0 0.0 0.00 0.00 0.00 25 1007.5
20260905003033 101 159 0.0 0.0 0.00 0.00 0.00 26 1007.5
20260905002533 100 157 0.0 1.0 0.00 0.00 0.00 27 1007.5
20260905001804 100 185 0.0 1.0 0.00 0.00 0.00 27 1007.5
20260905001302 101 201 0.0 2.0 0.00 0.00 0.00 26 1007.5
20260905000801 101 201 0.0 2.0 0.00 0.00 0.00 26 1007.5
20260905000531 101 219 0.0 2.0 0.00 0.00 0.00 26 1007.6
20260905000020 101 238 0.0 2.0 0.00 0.00 0.00 26 1007.6
20260904235305 101 248 0.0 0.0 0.00 0.00 0.00 27 1007.6
20260904234801 100 200 0.0 0.0 0.00 0.00 0.00 27 1007.7
20260904234302 100 196 0.0 6.0 0.00 0.00 0.00 28 1007.7
20260904233801 100 241 0.0 6.0 0.00 0.00 0.00 28 1007.8
20260904233742 100 202 0.0 1.0 0.00 0.00 0.00 28 1007.8
20260904232752 99 265 0.0 0.0 0.00 0.00 0.00 29 1007.8
20260904232251 99 265 0.0 0.0 0.00 0.00 0.00 29 1007.8
20260904232011 99 264 0.0 0.0 0.00 0.00 0.00 29 1008.0
20260904231248 100 5 0.0 1.0 0.00 0.00 0.00 29 1008.0
20260904230746 100 71 0.0 1.0 0.00 0.00 0.00 29 1008.1
20260904230243 100 215 0.0 1.0 0.00 0.00 0.00 29 1008.1
20260904225742 99 215 0.0 1.0 0.00 0.00 0.00 29 1008.2
20260904225241 99 236 0.0 0.0 0.00 0.00 0.00 30 1008.2
20260904224740 99 236 0.0 1.0 0.00 0.00 0.00 30 1008.3
20260904224238 99 228 0.0 1.0 0.00 0.00 0.00 29 1008.3
20260904223737 100 145 0.0 2.0 0.00 0.00 0.00 29 1008.3
20260904223237 100 163 0.0 2.0 0.00 0.00 0.00 29 1008.3
20260904222738 101 278 0.0 0.0 0.00 0.00 0.00 29 1008.4
20260904222238 100 216 0.0 0.0 0.00 0.00 0.00 30 1008.5
20260904221736 100 193 0.0 5.0 0.00 0.00 0.00 30 1008.5
20260904221236 99 269 0.0 5.0 0.00 0.00 0.00 31 1008.5
20260904220957 99 217 0.0 8.0 0.00 0.00 0.00 30 1008.7
20260904220232 100 165 0.0 8.0 0.00 0.00 0.00 30 1008.7
20260904215732 100 145 0.0 1.0 0.00 0.00 0.00 30 1008.8
20260904215452 99 269 0.0 1.0 0.00 0.00 0.00 31 1008.9
20260904214730 99 228 0.0 1.0 0.00 0.00 0.00 30 1009.0
20260904214230 100 229 0.0 1.0 0.00 0.00 0.00 29 1009.0
20260904213951 100 223 0.0 3.0 0.00 0.00 0.00 29 1009.0
20260904213229 101 178 0.0 3.0 0.00 0.00 0.00 29 1009.1
20260904212729 101 232 0.0 2.0 0.00 0.00 0.00 29 1009.1
20260904212229 101 153 0.0 2.0 0.00 0.00 0.00 29 1009.2
20260904211729 101 222 0.0 3.0 0.00 0.00 0.00 30 1009.2
20260904211228 101 211 1.0 8.0 0.00 0.00 0.00 30 1009.3
20260904211219 101 212 1.0 8.0 0.00 0.00 0.00 29 1009.3
20260904210230 101 247 0.0 1.0 0.00 0.00 0.00 30 1009.4
20260904205730 100 168 0.0 2.0 0.00 0.00 0.00 30 1009.5
20260904205228 100 227 0.0 5.0 0.00 0.00 0.00 31 1009.5
20260904204729 100 160 1.0 5.0 0.00 0.00 0.00 30 1009.6
20260904204229 100 190 0.0 5.0 0.00 0.00 0.00 31 1009.6
20260904203729 100 180 0.0 4.0 0.00 0.00 0.00 33 1009.7
20260904203228 99 213 0.0 7.0 0.00 0.00 0.00 33 1009.7
20260904202955 99 161 0.0 7.0 0.00 0.00 0.00 33 1009.7
20260904202231 98 192 0.0 0.0 0.00 0.00 0.00 34 1009.9